Regional Weather Roundup
Issued by NWS

Home | Current Version | Previous Version | Graphics & Text | Print | Product List | Glossary On
Versions: 1 2 3 4 5 6 7 8 9 10 11 12 13 14 15 16 17 18 19 20 21 22 23 24 25 26 27 28 29 30 31 32 33 34 35 36 37 38 39 40 41 42 43 44 45 46 47 48 49 50
000
ASUS43 KLSX 261059
RWRMO

WEATHER SUMMARY FOR MISSOURI
NATIONAL WEATHER SERVICE SPRINGFIELD MO
600 AM CDT TUE MAY 26 2015

NOTE: "FAIR" INDICATES FEW OR NO CLOUDS BELOW 12,000 FEET WITH NO
       SIGNIFICANT WEATHER AND/OR OBSTRUCTIONS TO VISIBILITY.
       CURRENT SKY AND/OR WEATHER CONDITIONS ARE NOT AVAILABLE FOR
       CHILLICOTHE AND FARMINGTON.

MOZ001>031-035>038-043-044-053-054-261200-
...NORTHERN AND WESTERN MISSOURI...

CITY           SKY/WX    TMP DP  RH WIND       PRES   REMARKS
KANSAS CTY INT LGT RAIN  60  59  96 S3        29.79R
KANSAS C DTWN  LGT RAIN  62  58  86 CALM      29.79R
LEE`S SUMMIT   CLOUDY    61  59  93 SE3       29.80R
ST JOSEPH      LGT RAIN  61  59  93 CALM      29.79R
KIRKSVILLE     LGT RAIN  68  66  93 S16       29.78R

$$
MOZ066>068-077>081-088>096-101>105-261200-
...SOUTHWEST MISSOURI...

CITY           SKY/WX    TMP DP  RH WIND       PRES   REMARKS
SPRINGFIELD    CLOUDY    63  58  83 SW9       29.89R
JOPLIN         CLOUDY    62  59  90 SW13      29.89R

$$
MOZ032>034-039>042-045>050-055>058-069>072-261200-
...CENTRAL MISSOURI...

CITY           SKY/WX    TMP DP  RH WIND       PRES   REMARKS
COLUMBIA       CLOUDY    65  62  90 S12       29.84R
JEFFERSON CITY CLOUDY    66  63  90 S8        29.84R
ROLLA          CLOUDY    63  61  93 SW9       29.86R
SEDALIA        CLOUDY    66  61  84 SW8       29.83R
OSAGE BEACH    CLOUDY    64  61  88 S8        29.86R

$$
MOZ051-052-059>065-261200-
...EAST CENTRAL MISSOURI...

CITY           SKY/WX    TMP DP  RH WIND       PRES   REMARKS
ST LOUIS INTL  LGT RAIN  73  67  81 SE16      29.84F
SPIRIT OF STL  LGT RAIN  71  65  81 E7        29.82R
ST CHARLES     LGT RAIN  72  68  87 SE13      29.83S

$$
MOZ072>076-082>087-097>100-106>115-261200-
...SOUTH CENTRAL AND SOUTHEAST MISSOURI...

CITY           SKY/WX    TMP DP  RH WIND       PRES   REMARKS
CAPE GIRARDEAU CLOUDY    71  68  90 SE18      29.88F
FARMINGTON     CLOUDY    68  66  94 SE9       29.90R
POPLAR BLUFF   CLOUDY    71  68  90 S10       29.88R
WEST PLAINS    MOCLDY    61  59  93 SW8       29.93R

$$


USA.gov is the U.S. government's official web portal to all federal, state and local government web resources and services.